Location: Franzen
(48.6167°N, 15.3833°E)
Time: 09:31:04
(UTC+00:00)

Altair - Pass Details

Date: 06 August 2021
Orbit: 1501 x 1682 km, 47.2° (Epoch: 20 September)

Event Time Altitude Azimuth Distance (km) Brightness Sun altitude
Rises 21:23:46 0° 194° (SSW) 4,816 - -21.2°
Reaches altitude 10° 21:27:40 10° 182° (S) 3,803 - -21.5°
Maximum altitude 21:34:51 24° 133° (SE) 2,786 - -22.0°
Exits shadow 21:36:25 23° 119° (ESE) 2,832 8.4 -22.1°
Drops below altitude 10° 21:41:52 10° 84° (E) 3,711 9.4 -22.4°
Sets 21:45:34 0° 71° (ENE) 4,675 10.0 -22.6°
